• MPC Preparation (Info)

  • MPEC 2012-F83 : 2012 FU35

    The following Minor Planet Electronic Circular may be linked-to from your own Web pages, but must not otherwise be redistributed electronically.

    A form allowing access to any MPEC is at the bottom of this page.


    Read MPEC 2012-F82 Read MPEC 2012-F84


    M.P.E.C. 2012-F83                                Issued 2012 Mar. 25, 22:54 UT
    
         The Minor Planet Electronic Circulars contain information on unusual
             minor planets and routine data on comets.  They are published
       on behalf of Commission 20 of the International Astronomical Union by the
              Minor Planet Center, Smithsonian Astrophysical Observatory,
                              Cambridge, MA 02138, U.S.A.
    
                 Prepared using the Tamkin Foundation Computer Network
    
                                  MPC@CFA.HARVARD.EDU
                URL https://www.minorplanetcenter.net/    ISSN 1523-6714
    
                                       2012 FU35
    
    Observations:
         K12F35U* C2012 03 24.23466 09 45 22.78 +08 24 21.2          20.8 VrEF083G96
         K12F35U  C2012 03 24.24168 09 45 23.90 +08 23 55.1          21.9 VrEF083G96
         K12F35U  C2012 03 24.24867 09 45 25.02 +08 23 29.0          22.0 VrEF083G96
         K12F35U  C2012 03 24.25567 09 45 26.10 +08 23 01.8          21.5 VrEF083G96
         K12F35U  C2012 03 24.30563 09 45 33.91 +08 19 51.9          21.3 VrEF083G96
         K12F35U  C2012 03 24.30708 09 45 34.16 +08 19 46.4          21.6 VrEF083G96
         K12F35U  C2012 03 24.30854 09 45 34.41 +08 19 40.6          21.6 VrEF083G96
         K12F35U  C2012 03 24.31001 09 45 34.59 +08 19 34.9          21.2 VrEF083G96
         K12F35U  C2012 03 24.38269 09 45 46.33 +08 14 58.3          22.3 VrEF083G96
         K12F35U  C2012 03 24.38327 09 45 46.47 +08 14 56.1          21.9 VrEF083G96
         K12F35U  C2012 03 24.38385 09 45 46.54 +08 14 53.2          21.4 VrEF083G96
         K12F35U KC2012 03 25.23727 09 48 14.82 +07 22 31.6          20.6 RoEF083291
         K12F35U KC2012 03 25.24128 09 48 15.41 +07 22 17.0          20.6 RoEF083291
         K12F35U KC2012 03 25.24529 09 48 16.01 +07 22 02.5          20.8 RoEF083291
    
    Observer details:
    291 LPL/Spacewatch II.  Observer T. H. Bressi.  1.8-m f/2.7 reflector + CCD.
    G96 Mt. Lemmon Survey.  Observer A. R. Gibbs.  Measurers J. D. Ahern,
        E. C. Beshore, A. Boattini, A. R. Gibbs, A. D. Grauer, R. E. Hill,
        R. A. Kowalski, S. M. Larson, R. H. McNaught.  1.5-m reflector + CCD.
    
    Orbital elements:
    2012 FU35                                                Earth MOID = 0.0686 AU
    Epoch 2012 Mar. 14.0 TT = JDT 2456000.5                 MPC
    M  27.57571              (2000.0)            P               Q
    n   0.57072216     Peri.  123.46230     -0.46182927     -0.88684274
    a   1.4394157      Node   353.98511     +0.75904767     -0.38644322
    e   0.3135335      Incl.    8.20582     +0.45886857     -0.25332113
    P   1.73           H   23.8           G   0.15           U   8
    Residuals in seconds of arc
    120324 G96  0.5-  0.7-    120324 G96  0.1+  0.3+    120324 G96  0.0   0.6-
    120324 G96  0.1-  0.0     120324 G96  0.4+  0.1+    120325 291  0.1+  0.1+
    120324 G96  0.4+  0.5+    120324 G96  0.4-  0.0     120325 291  0.0   0.0
    120324 G96  0.3+  0.1-    120324 G96  0.3-  0.1+    120325 291  0.1-  0.1-
    120324 G96  0.2-  0.3+    120324 G96  0.3+  0.1+
    
    Ephemeris:
    2012 FU35                a,e,i = 1.44, 0.31, 8                   q = 0.9881
    Date    TT    R. A. (2000) Decl.     Delta      r     Elong.  Phase     V
    2012 02 24    05 54 30.2 +59 36 04   0.09987 1.0273   109.6    65.2    21.2
    ...
    2012 03 10    08 46 16.4 +30 10 39   0.1096  1.0734   135.0    40.9    20.8
    ...
    2012 03 18    09 24 45.6 +16 10 55   0.1349  1.1032   140.8    34.7    21.1
    ...
    2012 03 24    09 44 42.0 +08 39 44   0.1606  1.1274   141.7    33.3    21.5
    2012 03 25    09 47 35.0 +07 37 17   0.1653  1.1316   141.6    33.2    21.6
    2012 03 26    09 50 22.2 +06 38 01   0.1702  1.1358   141.5    33.1    21.6
    ...
    2012 04 01    10 05 29.1 +01 40 11   0.2016  1.1616   140.3    33.3    22.0
    ...
    2012 04 09    10 22 48.8 -03 01 01   0.2487  1.1974   137.8    34.2    22.6
    ...
    2012 04 24    10 51 25.1 -08 23 21   0.3515  1.2673   131.8    36.3    23.5
    
    A. U. Tomatic                (C) Copyright 2012 MPC           M.P.E.C. 2012-F83
    

    Read MPEC 2012-F82 Read MPEC 2012-F84


    MPEC number:

    Enter an MPEC number in one of the following forms:

    • 1997-B01 (the full form)
    • J97B01 (the packed version of the full form)
    • B01 (the abbreviated form)